Lid_Strength_Index
3 3 3 4 4 4 4 3 4 4 4 3 3 3 3 3 3 3 6 4 2 -1 -2 2 2 3 2 3 3 4 9 10 10 9 9 6 7 5 4 5 4 4 4 2 1
3 3 3 3 3 3 3 4 4 4 4 4 3 3 3 3 4 6 1 2 -0 -3 2 3 3 2 4 4 4 6 9 10 8 8 9 6 6 6 6 5 6 5 3 2 1
3 3 3 3 3 3 3 3 3 4 4 4 4 3 3 2 5 4 -2 -0 -2 -2 3 2 2 3 5 4 6 8 11 7 8 7 7 7 6 5 6 7 5 5 4 3 2
3 3 3 3 3 3 3 3 3 4 4 4 4 3 3 3 8 4 -2 -2 -2 2 3 2 3 5 6 7 5 9 7 7 6 6 7 8 5 6 5 5 3 3 3 3 3
3 3 3 3 3 3 3 3 3 4 4 4 3 3 3 7 7 0 -2 -2 1 4 5 3 4 5 7 6 6 7 7 7 5 6 6 5 6 7 6 4 3 3 3 3 3
3 3 3 3 3 3 3 3 3 4 3 3 3 3 5 8 2 1 1 3 4 4 5 2 4 3 5 6 6 6 7 7 6 6 6 7 6 6 5 3 4 3 3 3 3
3 3 3 3 3 3 4 4 5 5 4 3 2 2 5 6 1 2 3 4 4 4 5 4 3 4 4 6 5 6 9 8 7 7 7 6 8 8 5 4 4 4 3 3 2
3 3 3 3 3 4 4 5 4 4 3 3 2 2 6 4 3 2 2 2 3 4 5 4 4 3 4 5 6 8 8 11 8 7 7 7 12 8 5 5 5 5 4 3 3
3 3 3 3 4 4 5 5 3 3 2 2 1 3 6 2 4 3 2 3 4 4 5 5 4 4 5 6 8 8 10 11 11 7 8 9 11 8 6 5 6 5 4 4 3
4 4 4 4 4 5 5 5 2 2 1 1 2 4 4 5 3 3 2 3 5 6 6 6 4 5 6 7 10 10 10 10 11 9 8 9 10 8 6 6 6 5 4 4 4
4 4 4 4 5 5 4 2 3 3 2 4 4 5 5 3 3 4 3 4 5 6 8 6 7 7 7 6 7 8 9 10 10 8 9 9 9 9 7 7 6 5 5 4 4
4 4 4 5 5 5 4 3 4 4 5 4 4 4 3 3 6 5 3 5 6 8 7 7 8 6 5 6 7 8 9 10 10 9 9 10 10 8 7 7 6 5 6 4 3
4 4 4 5 5 4 3 3 3 3 5 4 4 4 4 3 6 5 3 5 6 7 7 8 7 5 6 7 8 8 9 9 10 10 9 10 11 9 8 7 6 5 5 4 4
4 4 4 6 6 4 3 3 3 3 7 6 5 4 3 3 6 4 3 4 6 7 7 7 6 6 6 7 7 9 7 7 10 11 13 10 13 11 9 9 8 7 5 5 4
4 4 5 6 4 5 3 4 2 3 12 6 5 2 3 5 5 5 3 4 7 7 6 7 7 7 7 7 6 7 6 7 9 10 11 12 13 9 9 11 9 7 6 5 3
4 4 5 3 3 4 3 3 3 8 12 7 5 6 6 5 5 5 5 4 4 6 6 6 5 6 6 5 5 6 7 9 9 10 14 10 12 11 11 10 8 7 6 5 4
5 5 5 3 3 4 3 3 8 11 6 8 7 6 6 6 6 5 6 6 7 8 8 7 6 5 5 7 6 7 8 13 14 14 14 11 12 10 8 7 7 7 6 5 4
6 6 4 3 2 3 4 5 11 8 8 6 6 6 7 6 6 6 6 7 6 6 7 9 10 6 5 6 8 8 8 11 15 13 12 11 14 9 7 6 5 5 5 4 4
6 2 3 2 2 3 5 9 9 7 7 7 6 7 8 6 6 6 7 7 6 6 8 8 9 6 6 6 6 8 11 7 10 9 12 10 10 8 6 6 6 5 5 5 4
3 3 2 2 2 4 6 9 7 6 6 7 8 7 9 8 7 7 7 6 7 6 5 7 10 6 6 6 6 8 7 11 10 15 15 11 12 11 9 8 7 6 6 6 4
3 5 2 1 3 5 8 7 6 5 6 7 8 8 8 8 7 8 8 6 6 6 5 6 7 8 6 8 8 9 10 9 9 10 14 15 12 8 8 7 7 6 5 5 5
4 7 2 2 6 5 7 6 8 5 5 7 6 7 7 7 7 8 8 7 5 5 7 6 7 9 8 6 5 6 8 8 11 12 10 11 14 7 7 6 6 6 6 5 5
4 5 2 3 8 7 6 7 6 5 6 7 7 6 5 7 8 7 7 5 5 5 6 5 8 10 9 7 6 8 7 7 8 8 15 13 12 6 7 6 6 6 6 5 5
5 7 4 4 3 5 7 8 7 5 6 5 6 5 6 7 6 7 7 6 5 5 5 4 7 8 11 10 10 10 9 8 8 11 10 10 10 7 9 8 7 6 5 5 5
6 7 5 7 6 5 7 8 7 7 5 4 5 5 6 7 7 7 6 6 5 6 6 6 9 7 7 7 8 9 9 9 10 9 11 9 9 8 8 9 7 6 5 5 5
7 7 4 6 5 6 9 7 7 6 6 6 6 6 5 6 6 7 6 6 6 5 6 6 9 8 9 7 8 9 8 8 9 9 9 9 9 7 7 7 7 6 6 6 5
6 4 5 7 6 7 8 6 6 5 5 5 5 5 6 5 4 4 4 4 4 6 7 7 8 9 11 8 9 11 8 8 8 8 8 11 8 7 8 8 8 6 6 6 5